{"data":{"norad_id":45060,"intl_designator":"2020-006S","name":"STARLINK-1166","alt_names":[],"object_type":"PAYLOAD","status":"ACTIVE","operator":null,"country":"US","launch_date":"2020-01-29","launch_site_code":"AFETR","launch_vehicle":null,"mission":null,"orbit_class":"UNKNOWN","rcs_meters":null,"size_class":null,"mass_kg":null,"dimensions":null,"purposes":["comms"],"wikipedia_slug":null,"has_3d_model":false,"image_url":null,"decayed_at":null,"tle_current":{"epoch":"2026-05-25T04:12:09.963648Z","epoch_age_seconds":70450,"freshness":"FRESH","line1":"1 45060U 20006S   26145.17511532  .00084305  00000+0  11429-2 0  9994","line2":"2 45060  53.0460 264.9092 0003252 322.2751  37.8031 15.56966236348535","mean_motion":15.56966236,"eccentricity":0.0003252,"inclination_deg":53.046,"raan_deg":264.9092,"arg_perigee_deg":322.2751,"mean_anomaly_deg":37.8031,"bstar":0.0011429,"rev_number":34853,"period_min":92.4875547526,"perigee_km":394.23994642587,"apogee_km":398.64613328379,"semimajor_km":6774.5800398548,"source":"CELESTRAK","updated_at":"2026-05-25T13:38:16.377744Z"}}}